Weather History for Carlsbad, NM

Change the Weather History Date:

Wednesday, November 21, 2012

  Actual Average Record
Temperature  
Mean Temperature 59 °F -  
Max Temperature 72 °F 63 °F 80 °F (1950)
Min Temperature 46 °F 34 °F 18 °F (1956)
Degree Days  
Heating Degree Days 6    
Growing Degree Days 9 (Base 50)    
Moisture  
Dew Point 41 °F    
Average Humidity 53    
Maximum Humidity 72    
Minimum Humidity 37    
Precipitation  
Precipitation 0.00 in - - ()
Sea Level Pressure  
Sea Level Pressure 30.05 in    
Wind  
Wind Speed 4 mph (South)    
Max Wind Speed 13 mph    
Max Gust Speed -    
Visibility 10 miles    
Events      
Averages and records for this station are not official NWS values.
T = Trace of Precipitation, MM = Missing Value Source: NWS Daily Summary

Daily Weather History Graph

Daily Weather History Graph

Search for Another Location

Airport:

Trip Planner

Search our weather history database for the weather conditions in past years. The results will help you decide how hot, cold, wet, or windy it might be!

Date:

Astronomy

Nov. 21, 2012 Rise Set
Actual Time 6:32 AM MST 4:53 PM MST
Civil Twilight 6:05 AM MST 5:20 PM MST
Nautical Twilight 5:35 AM MST 5:49 PM MST
Astronomical Twilight 5:06 AM MST 6:19 PM MST
Moon 12:52 PM MST (11/21) 12:14 AM MST (11/21)
Length of Visible Light 11h 14m
Length of Day
10h 21m
Waxing Gibbous, 62% of the Moon is Illuminated
Nov 21
Waxing Gibbous
Nov 28
Full
Dec 6
Last Quarter
Dec 13
New
Dec 19
First Quarter

Hourly Weather History & Observations

Time (MST) Temp. Dew Point Humidity Pressure Visibility Wind Dir Wind Speed Gust Speed Precip Events Conditions
12:53 AM 50.0 °F 34.0 °F 54% 30.12 in 10.0 mi North 3.5 mph - N/A   Clear
1:53 AM 48.9 °F 35.1 °F 59% 30.11 in 10.0 mi NW 3.5 mph - N/A   Clear
2:53 AM 48.9 °F 37.9 °F 66% 30.10 in 10.0 mi WNW 5.8 mph - N/A   Clear
3:53 AM 48.9 °F 35.1 °F 59% 30.09 in 10.0 mi NW 4.6 mph - N/A   Clear
4:53 AM 48.9 °F 35.1 °F 59% 30.11 in 10.0 mi Calm Calm - N/A   Clear
5:53 AM 48.0 °F 33.1 °F 56% 30.14 in 10.0 mi Calm Calm - N/A   Clear
6:53 AM 46.9 °F 37.0 °F 68% 30.15 in 10.0 mi Calm Calm - N/A   Clear
7:53 AM 51.1 °F 37.0 °F 59% 30.16 in 10.0 mi Calm Calm - N/A   Clear
8:53 AM 57.0 °F 33.1 °F 40% 30.16 in 10.0 mi SE 3.5 mph - N/A   Clear
9:53 AM 60.1 °F 35.1 °F 39% 30.15 in 10.0 mi SE 4.6 mph - N/A   Clear
10:53 AM 64.0 °F 37.0 °F 37% 30.10 in 10.0 mi SE 5.8 mph - N/A   Clear
11:53 AM 66.9 °F 42.1 °F 40% 30.04 in 10.0 mi ESE 5.8 mph - N/A   Clear
12:53 PM 72.0 °F 44.1 °F 37% 30.01 in 10.0 mi East 6.9 mph - N/A   Clear
1:53 PM 72.0 °F 45.0 °F 38% 29.99 in 10.0 mi SE 10.4 mph - N/A   Clear
2:53 PM 71.1 °F 45.0 °F 39% 29.99 in 10.0 mi South 12.7 mph - N/A   Mostly Cloudy
3:53 PM 70.0 °F 45.0 °F 41% 29.97 in 10.0 mi SW 6.9 mph - N/A   Clear
4:53 PM 68.0 °F 46.0 °F 45% 29.97 in 10.0 mi South 11.5 mph - N/A   Clear
5:53 PM 64.0 °F 46.9 °F 54% 29.99 in 10.0 mi Calm Calm - N/A   Partly Cloudy
6:53 PM 64.0 °F 48.0 °F 56% 30.01 in 10.0 mi SSW 11.5 mph - N/A   Scattered Clouds
7:53 PM 63.0 °F 46.9 °F 56% 30.02 in 10.0 mi SW 3.5 mph - N/A   Overcast
8:53 PM 59.0 °F 46.9 °F 64% 30.01 in 10.0 mi SW 5.8 mph - N/A   Clear
9:53 PM 59.0 °F 46.0 °F 62% 29.98 in 10.0 mi South 4.6 mph - N/A   Partly Cloudy
10:53 PM 55.9 °F 46.0 °F 69% 29.96 in 10.0 mi South 8.1 mph - N/A   Clear
11:53 PM 55.0 °F 46.0 °F 72% 29.95 in 10.0 mi SE 4.6 mph - N/A   Clear